This is the latest recevied weather packets stored in our database for station/object HA5CD-6. If no packets are shown the sender has not sent any weather packets the latest 10 day(s).
| Time | Temp. | Humidity | Pressure | Rain* | Wind** | Luminosity | Snow |
|---|---|---|---|---|---|---|---|
| 1778003561 | 22.78° C | 34% | 987 hPa | - | - | - | - |
| 1778002964 | 23.33° C | 33% | 987 hPa | - | - | - | - |
| 1778002359 | 23.33° C | 33% | 987 hPa | - | - | - | - |
| 1778001759 | 23.89° C | 32% | 987 hPa | - | - | - | - |
| 1778001159 | 25° C | 30% | 987 hPa | - | - | - | - |
| 1777999959 | 29.44° C | 21% | 987 hPa | - | - | - | - |
| 1777999359 | 30.56° C | 22% | 987 hPa | - | - | - | - |
| 1777998759 | 30.56° C | 21% | 987 hPa | - | - | - | - |
| 1777998159 | 28.89° C | 24% | 987 hPa | - | - | - | - |
| 1777997558 | 26.67° C | 25% | 987 hPa | - | - | - | - |
| 1777996958 | 30° C | 21% | 987 hPa | - | - | - | - |
| 1777996358 | 32.78° C | 19% | 987 hPa | - | - | - | - |
| 1777995835 | 32.22° C | 19% | 987 hPa | - | - | - | - |
| 1777994558 | 32.22° C | 20% | 987 hPa | - | - | - | - |
| 1777993959 | 31.67° C | 20% | 987 hPa | - | - | - | - |
| 1777993358 | 34.44° C | 16% | 987 hPa | - | - | - | - |
| 1777992157 | 32.22° C | 19% | 987 hPa | - | - | - | - |
| 1777991557 | 28.33° C | 24% | 987 hPa | - | - | - | - |
| 1777990957 | 30.56° C | 22% | 987 hPa | - | - | - | - |
| 1777990357 | 29.44° C | 24% | 988 hPa | - | - | - | - |
| 1777989757 | 29.44° C | 23% | 988 hPa | - | - | - | - |
| 1777988561 | 32.22° C | 22% | 988 hPa | - | - | - | - |
| 1777987958 | 31.11° C | 22% | 988 hPa | - | - | - | - |
| 1777987356 | 30° C | 23% | 988 hPa | - | - | - | - |
| 1777986156 | 30.56° C | 22% | 988 hPa | - | - | - | - |
* Rain since midnight (hover to see other rain measurements)
** Current wind speed in m/s (hover to see current wind gust speed)